Regional Weather Roundup
Issued by NWS Goodland, KS

Home | Current Version | Previous Version | Text Only | Print | Product List | Glossary On
Versions: 1 2 3 4 5 6 7 8 9 10 11 12 13 14 15 16 17 18 19 20 21 22 23 24 25 26 27 28 29 30 31 32 33 34 35 36 37 38 39 40 41 42 43 44 45 46 47 48 49 50
000
ASUS43 KGLD 260759
RWRGLD

GOODLAND FORECAST AREA HOURLY WEATHER ROUNDUP
NATIONAL WEATHER SERVICE GOODLAND KS
200 AM MDT SAT JUL 26 2014

...OFFICIAL OBSERVATIONS...

CITY           SKY/WX    TMP DP  RH WIND       PRES   REMARKS
GOODLAND KS    CLOUDY    67  63  87 NW8       29.96S
HILL CITY KS   LGT RAIN  75  67  76 NW15      29.90F
IMPERIAL NEB   PTCLDY    72  64  76 S6        29.93R
MCCOOK NEB     CLOUDY    75  66  73 S10       29.91S
AKRON CO       PTCLDY    67  50  54 SW5       30.02F
BURLINGTON CO  CLOUDY    67  60  78 W5        29.99F
LIMON CO       NOT AVBL
$$

...UNOFFICIAL OBSERVATIONS...

CITY           SKY/WX    TMP DP  RH WIND       PRES   REMARKS
COLBY KS       CLEAR     72  66  83 N7        29.92F
GOVE KS          N/A     72  32  23 MISG        N/A
NORTON KS      PTCLDY    73  61  64 SW5G20    29.91F
SHARON SPRINGS   N/A     69  64  83 CALM        N/A
WAKEENEY KS      N/A     74  67  76 MISG        N/A
KIT CARSON CO    N/A     69  63  82 CALM        N/A
$$


USA.gov is the U.S. government's official web portal to all federal, state and local government web resources and services.